Location: Banksville Park
(38.5557°N, 75.1182°W)
Time: 11:56:37
(UTC+00:00)

BREEZE-M DEB (TANK) - Pass Details

Date: 19 September 2020
Orbit: 306 x 13932 km, 46.1° (Epoch: 23 October)

Event Time Altitude Azimuth Distance (km) Brightness Sun altitude
Exits shadow 09:11:50 26° 245° (WSW) 2,665 5.1 -18.9°
Maximum altitude 09:16:38 82° 331° (NNW) 869 3.2 -18.0°
Drops below altitude 10° 09:20:03 10° 59° (ENE) 1,735 6.1 -17.4°
Sets 09:21:24 0° 61° (ENE) 2,367 7.1 -17.1°
